This demonstration page uses our WeatherBlox Daily Observations layout. Learn more.

Left ArrowRight Arrow

39.92423, -83.80882

Hourly Observations for November 22, 2020

Temp ( °F °C ) Dew Point ( °F °C ) Humidity (%) Winds ( mph kmh ) Pressure ( in mb ) Visibility ( mi km ) Precip ( " mm )
12:56 am 00:56 Cloudy with Light Rain 42 5.6 42 5.6 100 100 NE 13 20 30.35 1028 10 16 N/A
1:56 am 01:56 Cloudy with Light Rain 41 5 41 5 100 100 ENE 14 22 30.30 1026 9 14 0.00 0.00
2:34 am 02:34 Cloudy with Light Rain 41 5 41 5 100 100 ENE 14 22 30.29 1026 9 14 0.00 0.00
2:56 am 02:56 Cloudy with Light Rain 41 5 41 5 100 100 ENE 16 26 30.26 1025 10 16 0.00 0.00
3:52 am 03:52 Cloudy with Light Rain 39 4 39 4 100 100 NE 10 17 30.28 1025 10 16 0.00 0.00
3:56 am 03:56 Cloudy with Light Rain 40 4.4 40 4.4 100 100 NE 9 15 30.26 1025 10 16 0.00 0.00
4:03 am 04:03 Cloudy with Light Rain 39 4 39 4 100 100 NE 13 20 30.27 1025 10 16 0.00 0.00
4:56 am 04:56 Cloudy 40 4.4 40 4.4 100 100 ENE 14 22 30.24 1024 10 16 0.00 0.00
5:51 am 05:51 Cloudy 39 4 39 4 100 100 ENE 13 20 30.24 1024 10 16 N/A
5:56 am 05:56 Cloudy 39 3.9 39 3.9 100 100 ENE 12 19 30.23 1024 10 16 N/A
6:05 am 06:05 Cloudy 39 4 39 4 100 100 NE 12 19 30.24 1024 10 16 N/A
6:56 am 06:56 Cloudy 39 3.9 39 3.9 100 100 ENE 10 17 30.22 1023 10 16 0.00 0.00
7:56 am 07:56 Cloudy 39 3.9 39 3.9 100 100 ENE 12 19 30.20 1023 8 13 N/A
8:20 am 08:20 Cloudy with Mist and Fog 39 4 39 4 100 100 ENE 13 20 30.20 1023 6 10 N/A
8:56 am 08:56 Cloudy with Mist and Fog 39 3.9 39 3.9 100 100 E 14 22 30.16 1021 4 6 N/A
9:10 am 09:10 Cloudy with Mist and Fog 39 4 39 4 100 100 E 12 19 30.17 1022 3 5 N/A
9:56 am 09:56 Cloudy with Light Rain 39 3.9 39 3.9 100 100 E 14 22 30.14 1021 3 5 0.00 0.00
10:08 am 10:08 Cloudy with Rain 39 4 39 4 100 100 E 12 19 30.15 1021 3 4 0.00 0.00
10:24 am 10:24 Cloudy with Rain 39 4 39 4 100 100 E 12 19 30.14 1021 3 5 N/A
10:56 am 10:56 Cloudy with Light Rain 39 3.9 39 3.9 100 100 E 13 20 30.09 1019 4 6 N/A
11:56 am 11:56 Cloudy with Light Rain 40 4.4 40 4.4 100 100 E 10 17 30.03 1017 3 5 N/A
12:56 pm 12:56 Cloudy with Light Rain 42 5.6 42 5.6 100 100 VRB 5 7 29.99 1016 5 8 N/A
1:32 pm 13:32 Cloudy with Light Rain 43 6 43 6 100 100 N N/A 29.98 1015 2 3 N/A
1:54 pm 13:54 Cloudy with Light Rain 43 6 43 6 100 100 NNW 7 11 29.99 1016 1 2 N/A
1:56 pm 13:56 Cloudy with Light Rain 43 6.1 43 6.1 100 100 NNW 8 13 29.98 1015 1 2 N/A
2:08 pm 14:08 Cloudy with Light Rain 43 6 43 6 100 100 NW 7 11 29.99 1016 1 2 N/A
2:23 pm 14:23 Cloudy with Light Rain 43 6 43 6 100 100 NW 8 13 29.99 1016 2 3 N/A
2:33 pm 14:33 Cloudy with Light Rain 43 6 43 6 100 100 N 8 13 29.98 1015 2 3 N/A
2:46 pm 14:46 Cloudy with Light Rain 43 6 43 6 100 100 N 6 9 29.98 1015 3 4 N/A
2:53 pm 14:53 Cloudy with Light Rain 43 6 43 6 100 100 NNW 8 13 29.98 1015 5 8 N/A
2:56 pm 14:56 Cloudy with Light Rain 42 5.6 42 5.6 100 100 NNW 7 11 29.98 1015 6 10 N/A
3:56 pm 15:56 Cloudy with Light Rain 40 4.4 40 4.4 100 100 NNW 12 19 30.00 1016 3 4 N/A
4:22 pm 16:22 Cloudy with Light Rain 39 4 39 4 100 100 NW 12 19 30.04 1017 4 6 N/A
4:41 pm 16:41 Cloudy with Light Rain 39 4 39 4 100 100 NW 9 15 30.06 1018 5 8 N/A
4:56 pm 16:56 Cloudy with Light Rain 38 3.3 38 3.3 100 100 NNW 12 19 30.04 1017 9 14 N/A
5:56 pm 17:56 Cloudy with Mist and Fog 39 3.9 39 3.9 100 100 NW 12 19 30.08 1019 6 10 N/A
6:09 pm 18:09 Cloudy with Mist and Fog 39 4 39 4 100 100 WNW 17 28 30.10 1019 4 6 N/A
6:56 pm 18:56 Cloudy with Mist and Fog 36 2.2 36 2.2 100 100 WNW 15 24 30.11 1020 4 6 N/A
7:56 pm 19:56 Cloudy with Mist and Fog 36 2.2 36 2.2 100 100 NNW 10 17 30.14 1021 5 8 N/A
8:56 pm 20:56 Cloudy with Mist and Fog 35 1.7 35 1.7 100 100 WNW 14 22 30.18 1022 5 8 N/A
9:04 pm 21:04 Cloudy with Mist and Fog 36 2 36 2 100 100 NW 12 19 30.19 1022 6 10 N/A
9:56 pm 21:56 Cloudy 36 2.2 36 2.2 100 100 NW 10 17 30.19 1022 10 16 N/A
10:47 pm 22:47 Cloudy 36 2 36 2 100 100 NW 16 26 30.23 1024 10 16 N/A
10:56 pm 22:56 Cloudy 36 2.2 36 2.2 100 100 NW 9 15 30.21 1023 10 16 N/A
11:30 pm 23:30 Cloudy 36 2 36 2 100 100 WNW 10 17 30.24 1024 10 16 N/A
11:56 pm 23:56 Cloudy 36 2.2 36 2.2 100 100 WNW 9 15 30.23 1024 10 16 N/A

Powered by AerisWeather